Flag for Germany Weather past 2 weeks in Fürstenfeldbruck, Bavaria, Germany

Now
68 °F

Thunderstorms. Passing clouds.


Feels Like: 68 °F
Forecast: 55 / 67 °F
Wind: 6 mph from West

Location: Lechfeld

Current Time: Jul 8, 2015 at 2:57:43 AM

Latest Report: Jul 8, 2015 at 2:20 AM


Visibility: N/A

Pressure: 29.92 "Hg (28.16 "Hg at 520m altitude)

Humidity: 88%

Dew point: 64 °F

Location of FürstenfeldbruckLocation

Historic Weather in Fürstenfeldbruck — Graph

°F

Fürstenfeldbruck temperature yesterday

Maximum temperature yesterday: 91 °F (at 2:20 PM)
Minimum temperature yesterday: 61 °F (at 5:20 AM)
Average temperature yesterday: 78 °F

Past Weeks' High & Low Weather Summary

 TemperatureHumidityPressure
High93 °F (Jul 5, 4:20 PM)100% (Jun 27, 11:20 PM)30.33 "Hg (Jun 27, 11:20 PM)
Low43 °F (Jun 25, 2:20 AM)28% (Jul 5, 4:20 PM)29.80 "Hg (Jul 7, 8:20 PM)
Average68 °F67%30.15 "Hg
* Reported Jun 23 2:20 AM — Jul 8 1:20 AM, Fürstenfeldbruck, Weather by CustomWeather, © 2015

Note: Actual official high and low records may vary slightly from our data, if they occured in-between our weather recording intervals... More about our weather records

Advertising

Fürstenfeldbruck weather history for previous 24 hours

 ConditionsComfort  
Time TempWeatherWind HumidityBarometerVisibility
1:20 AM
Wed, Jul 8
72 °FThunderstorms. Passing clouds.8 mph78%29.89 "HgN/A
12:57 AM73 °FStrong thunderstorms. Passing clouds.10 mph74%29.89 "Hg2 mi
12:20 AM75 °FPartly cloudy.3 mph65%29.86 "HgN/A
11:20 PM
Tue, Jul 7
81 °FPartly cloudy.9 mph48%29.80 "HgN/A
10:20 PM81 °FPartly cloudy.12 mph58%29.80 "HgN/A
9:20 PM77 °FBroken clouds.7 mph65%29.80 "HgN/A
8:20 PM84 °FPassing clouds.6 mph51%29.80 "HgN/A
7:20 PM90 °FPassing clouds.6 mph41%29.83 "HgN/A
6:20 PM91 °FPassing clouds.8 mph36%29.89 "HgN/A
5:20 PM91 °FPassing clouds.12 mph36%29.89 "HgN/A
4:20 PM91 °FPassing clouds.15 mph34%29.92 "HgN/A
3:20 PM91 °FPassing clouds.15 mph38%29.95 "HgN/A
2:20 PM91 °FPassing clouds.14 mph38%29.95 "HgN/A
1:20 PM88 °FPassing clouds.9 mph43%29.98 "HgN/A
12:20 PM86 °FScattered clouds.5 mph46%29.98 "HgN/A
11:20 AM82 °FScattered clouds.2 mph58%30.01 "HgN/A
10:20 AM81 °FPassing clouds.3 mph58%30.01 "HgN/A
9:20 AM79 °FPassing clouds.2 mph65%30.04 "HgN/A
8:20 AM73 °FPassing clouds.5 mph78%30.04 "HgN/A
7:20 AM68 °FPassing clouds.5 mph94%30.04 "Hg5 mi
6:20 AM66 °FFog.3 mph94%30.04 "Hg5 mi
5:20 AM61 °FFog.2 mph100%30.07 "Hg5 mi
4:20 AM63 °FFog.5 mph94%30.07 "Hg5 mi
3:20 AM64 °FMild.2 mph94%30.07 "HgN/A
2:20 AM66 °FMild.1 mph94%30.09 "HgN/A
Weather by CustomWeather, © 2015

See weather overviewHow to use our weather pages